Location: Crocus Hill
(18.2167°N, 63.0667°W)
Time: 17:36:44
(UTC+00:00)

Meteor 1-21 Rocket - Pass Details

Date: 26 January 2020
Orbit: 834 x 906 km, 81.2° (Epoch: 21 February)

Event Time Altitude Azimuth Distance (km) Brightness Sun altitude
Exits shadow 09:31:21 - 347° (NNW) 3,485 7.1 -17.9°
Reaches altitude 10° 09:33:45 10° 343° (NNW) 2,584 6.4 -17.4°
Maximum altitude 09:39:30 57° 266° (W) 1,058 4.4 -16.1°
Drops below altitude 10° 09:45:15 10° 189° (S) 2,569 6.8 -14.8°
Sets 09:47:44 0° 185° (S) 3,501 7.6 -14.2°
